Lakeland Region, FL

5:12 PM EDT on April 26, 2017 (GMT -0400)
Lakeland Linder Regional

Weather History for KLAL - November, 2012

Change the Weather History Date:

Saturday, November 10, 2012

  Actual Average Record
Temperature  
Mean Temperature 63 °F -  
Max Temperature 75 °F 76 °F 86 °F (2002)
Min Temperature 51 °F 58 °F 41 °F (1996)
Degree Days  
Heating Degree Days 2    
Growing Degree Days 13 (Base 50)    
Moisture  
Dew Point 48 °F    
Average Humidity 67    
Maximum Humidity 82    
Minimum Humidity 38    
Precipitation  
Precipitation 0.00 in - - ()
Sea Level Pressure  
Sea Level Pressure 30.27 in    
Wind  
Wind Speed 5 mph (NE)    
Max Wind Speed 14 mph    
Max Gust Speed 18 mph    
Visibility 13 miles    
Events      
Averages and records for this station are not official NWS values.
T = Trace of Precipitation, MM = Missing Value Source: NWS Daily Summary

Daily Weather History Graph

Daily Weather History Graph

Search for Another Location

Airport or City:

Trip Planner

Search our weather history database for the weather conditions in past years. The results will help you decide how hot, cold, wet, or windy it might be!

Date:

Astronomy

Nov. 10, 2012 Rise Set
Actual Time 6:46 AM EST 5:37 PM EST
Civil Twilight 6:21 AM EST 6:02 PM EST
Nautical Twilight 5:53 AM EST 6:30 PM EST
Astronomical Twilight 5:25 AM EST 6:58 PM EST
Moon 3:06 AM EST (11/10) 3:09 PM EST (11/10)
Length of Visible Light 11h 40m
Length of Day
10h 51m
Waning Crescent, 14% of the Moon is Illuminated
Nov 10
Waning Crescent
Nov 13
New
Nov 20
First Quarter
Nov 28
Full
Dec 6
Last Quarter

Hourly Weather History & Observations

Time (EST) Temp. Dew Point Humidity Pressure Visibility Wind Dir Wind Speed Gust Speed Precip Events Conditions
12:15 AM 53.6 °F 46.4 °F 77% 30.25 in 10.0 mi NNE 3.5 mph - N/A   Clear
12:35 AM 53.6 °F 44.6 °F 72% 30.25 in 10.0 mi NE 4.6 mph - N/A   Clear
12:55 AM 51.8 °F 46.4 °F 82% 30.25 in 10.0 mi Calm Calm - N/A   Clear
1:15 AM 51.8 °F 44.6 °F 76% 30.25 in 10.0 mi Calm Calm - N/A   Scattered Clouds
1:35 AM 51.8 °F 44.6 °F 76% 30.25 in 10.0 mi NNE 3.5 mph - N/A   Clear
1:55 AM 51.8 °F 46.4 °F 82% 30.24 in 10.0 mi NNE 4.6 mph - N/A   Clear
2:15 AM 51.8 °F 46.4 °F 82% 30.25 in 10.0 mi NNE 4.6 mph - N/A   Scattered Clouds
2:35 AM 53.6 °F 46.4 °F 77% 30.25 in 10.0 mi NNE 4.6 mph - N/A   Overcast
2:55 AM 53.6 °F 46.4 °F 77% 30.25 in 10.0 mi NNE 4.6 mph - N/A   Overcast
3:15 AM 53.6 °F 46.4 °F 77% 30.25 in 10.0 mi NNE 4.6 mph - N/A   Overcast
3:35 AM 53.6 °F 46.4 °F 77% 30.25 in 10.0 mi NE 4.6 mph - N/A   Mostly Cloudy
3:55 AM 53.6 °F 44.6 °F 72% 30.25 in 10.0 mi NNE 4.6 mph - N/A   Scattered Clouds
4:15 AM 51.8 °F 44.6 °F 76% 30.25 in 10.0 mi NE 4.6 mph - N/A   Clear
4:35 AM 51.8 °F 44.6 °F 76% 30.25 in 10.0 mi NNE 3.5 mph - N/A   Clear
4:55 AM 51.8 °F 44.6 °F 76% 30.25 in 10.0 mi NNE 4.6 mph - N/A   Clear
5:15 AM 51.8 °F 44.6 °F 76% 30.26 in 10.0 mi NE 3.5 mph - N/A   Clear
5:35 AM 51.8 °F 44.6 °F 76% 30.26 in 10.0 mi NNE 5.8 mph - N/A   Scattered Clouds
7:50 AM 55.4 °F 48.2 °F 77% 30.30 in 15.0 mi North 3.5 mph - N/A   Scattered Clouds
8:50 AM 62.6 °F 48.2 °F 59% 30.31 in 15.0 mi NE 8.1 mph - N/A   Scattered Clouds
9:50 AM 68.0 °F 48.2 °F 49% 30.33 in 15.0 mi NE 10.4 mph - N/A   Clear
10:50 AM 71.6 °F 48.2 °F 43% 30.32 in 15.0 mi NNE 8.1 mph - N/A   Clear
11:50 AM 75.2 °F 48.2 °F 38% 30.30 in 15.0 mi ENE 6.9 mph 16.1 mph N/A   Scattered Clouds
12:50 PM 73.4 °F 48.2 °F 41% 30.27 in 15.0 mi East 10.4 mph - N/A   Scattered Clouds
1:55 PM 75.2 °F 48.2 °F 38% 30.24 in 15.0 mi ENE 13.8 mph 18.4 mph N/A   Mostly Cloudy
2:54 PM 73.4 °F 50.0 °F 44% 30.24 in 20.0 mi East 12.7 mph 18.4 mph N/A   Mostly Cloudy
3:54 PM 75.2 °F 48.2 °F 38% 30.24 in 20.0 mi East 13.8 mph - N/A   Mostly Cloudy
4:54 PM 73.4 °F 51.8 °F 47% 30.25 in 20.0 mi East 6.9 mph - N/A   Mostly Cloudy
5:55 PM 69.8 °F 51.8 °F 53% 30.26 in 20.0 mi East 6.9 mph - N/A   Mostly Cloudy
6:52 PM 66.2 °F 51.8 °F 60% 30.27 in 20.0 mi ENE 4.6 mph - N/A   Mostly Cloudy
7:50 PM 66.2 °F 53.6 °F 64% 30.29 in 20.0 mi ENE 5.8 mph - N/A   Mostly Cloudy
8:58 PM 62.6 °F 53.6 °F 72% 30.30 in 20.0 mi NE 5.8 mph - N/A   Partly Cloudy
9:53 PM 60.8 °F 53.6 °F 77% 30.30 in 15.0 mi NE 5.8 mph - N/A   Clear
9:55 PM 60.8 °F 51.8 °F 72% 30.30 in 10.0 mi ENE 4.6 mph - N/A   Clear
10:15 PM 59.0 °F 51.8 °F 77% 30.30 in 10.0 mi ENE 4.6 mph - N/A   Clear
10:35 PM 59.0 °F 51.8 °F 77% 30.30 in 10.0 mi ENE 5.8 mph - N/A   Clear
11:35 PM 59.0 °F 51.8 °F 77% 30.29 in 10.0 mi NE 3.5 mph - N/A   Scattered Clouds
11:55 PM 59.0 °F 51.8 °F 77% 30.28 in 10.0 mi NE 3.5 mph - N/A   Overcast